Regional Weather Roundup
Issued by NWS Bismarck, ND

Home | Current Version | Previous Version | Text Only | Print | Product List | Glossary On
Versions: 1 2 3 4 5 6 7 8 9 10 11 12 13 14 15 16 17 18 19 20 21 22 23 24 25 26 27 28 29 30 31 32 33 34 35 36 37 38 39 40 41 42 43 44 45 46 47 48 49 50
000
ASUS43 KBIS 260202
RWRBIS

NWR BROADCAST TEXT
NATIONAL WEATHER SERVICE BISMARCK ND
900 PM CDT WED APR 25 2018

NOTE: "FAIR" INDICATES FEW OR NO CLOUDS BELOW 12,000 FEET WITH NO
SIGNIFICANT WEATHER AND/OR OBSTRUCTIONS TO VISIBILITY.


CITY           SKY/WX    TMP DP  RH WIND       PRES   REMARKS
WILLISTON      MOCLDY    60  28  29 N21       29.92R
MINOT          PTCLDY    59  34  39 NW22G31   29.80R
MINOT AFB      MOCLDY    58  35  41 N18       29.80R
BISMARCK       MOCLDY    61  29  29 SW9       29.80R
DICKINSON      CLOUDY    54  30  40 NW9       29.85R
GARRISON         N/A     57  33  40 NW8       29.79R
HETTINGER ARPT CLOUDY    50  32  50 NW6       29.88S
JAMESTOWN      CLOUDY    56  31  38 S14       29.79F
CARRINGTON     FAIR      52  34  50 S9        29.78F
HAZEN          FAIR      59  30  33 CALM      29.82R
MANDAN         FAIR      57  30  35 W9        29.80S
OAKES            N/A     54  37  54 SW14      29.87R
RUGBY          FAIR      55  34  44 NW7       29.74S
STANLEY          N/A     55  34  44 N18G28    29.90R HAZE
TIOGA          FAIR      55  32  41 N21G30    29.91R
WATFORD CITY   FAIR      59  32  36 N16       29.89R
$$

CITY           SKY/WX    TMP DP  RH WIND       PRES   REMARKS
GRAND FORKS    MOCLDY    52  39  61 S8        29.77F
GRAND FORKS AF FAIR      54  38  53 S10       29.76F
DEVILS LAKE    FAIR      53  30  41 S7        29.75F
FARGO          FAIR      56  36  47 S13       29.84F
CANDO          FAIR      52  30  43 NW8       29.76R
CAVALIER         N/A     57  32  38 S9        29.72F
GRAFTON        FAIR      54  34  47 S12       29.76F
GWINNER          N/A     52  37  58 SW12      29.86S
LANGDON        FAIR      52  36  54 W8        29.75R
ROLLA          FAIR      54  37  54 N18G28    29.79R
WALHALLA       FAIR      59  34  38 W6        29.72S
$$

CITY           SKY/WX    TMP DP  RH WIND       PRES   REMARKS
ABERDEEN       MOCLDY    50  35  56 S10       29.89F
MOBRIDGE       CLOUDY    55  35  47 SE7       29.81F
BUFFALO          N/A     59  28  30 NW18      29.84S
RAPID CITY     CLOUDY    63  24  22 SW7       29.85S
GLASGOW        PTCLDY    58  29  33 NW15      30.05R
SIDNEY         MOCLDY    59  28  30 N25       29.94R
WOLF POINT     PTCLDY    60  30  32 NW16G25   30.01R
GLENDIVE       PTCLDY    57  28  33 N16       29.96R
MILES CITY     MOCLDY    55  36  48 NW10      29.99R
BAKER          CLOUDY    57  31  37 NW18      29.95R
$$

CITY           SKY/WX    TMP DP  RH WIND       PRES   REMARKS
BILLINGS       CLOUDY    50  34  54 N24G31    30.13R
GREAT FALLS    CLEAR     48  34  58 S7        30.21R
$$




USA.gov is the U.S. government's official web portal to all federal, state and local government web resources and services.